Location: Lake Zurich
(42.1970°N, 88.0930°W)
Time: 07:11:35
(UTC-05:00)

Daily predictions for brighter satellites

Satellite Brightness Start Highest point End
(mag) Time Altitude Azimuth Time Altitude Azimuth Time Altitude Azimuth
SeaSat 1 3.3 20:04:34 10° NE 20:08:45 27° ESE 20:12:54 10° SSE
Cosmos 1602 3.9 20:07:33 10° S 20:11:16 50° E 20:15:00 10° NNE
Cosmos 1633 2.7 20:10:35 10° S 20:14:12 81° W 20:17:51 10° N
GENESIS II 4.2 20:11:00 10° NNW 20:14:57 75° NE 20:18:49 10° SE
Okean 1 Rocket 4.4 20:14:19 10° SE 20:17:33 21° E 20:20:48 10° NE
Cosmos 2263 Rocket 2.7 20:12:38 10° NNW 20:18:05 43° ENE 20:23:27 10° SE
Cosmos 1300 Rocket 4.3 20:14:36 10° SSE 20:18:22 30° E 20:22:09 10° NNE
Uosat 12 SS-18 rocket 4.5 20:15:08 10° SSW 20:19:50 64° ESE 20:25:38 10° NE
NOSS 2-3 (C) 4.1 20:17:37 10° SSW 20:22:04 48° ESE 20:27:10 10° NE
Cosmos 2322 Rocket 2.3 20:16:52 10° S 20:22:27 59° ESE 20:28:04 10° NNE
GPS 2-05 Rocket1 4.2 20:21:00 10° WSW 20:23:51 25° S 20:26:33 10° SE
Tiangong 1 0.7 20:21:32 10° W 20:24:19 77° SSW 20:26:47 12° ESE
Meteor 1-11 Rocket 3.9 20:18:45 10° S 20:24:25 55° E 20:29:59 10° NNE
Cosmos 1140 Rocket 3.6 20:19:19 10° NNW 20:24:34 83° WSW 20:29:49 10° SSE
YAOGAN 6 3.9 20:22:20 10° ESE 20:25:09 23° ENE 20:27:58 10° NNE
Cosmos 614 Rocket 4.0 20:20:31 10° NNW 20:25:40 86° ENE 20:30:50 10° SSE
S3M 4.0 20:19:29 10° N 20:25:45 68° E 20:32:04 10° SSE
Cosmos 1553 Rocket 3.9 20:20:47 10° N 20:26:57 75° E 20:33:01 10° SSE
Cosmos 2266 Rocket 4.3 20:25:53 10° SSE 20:31:30 43° E 20:37:09 10° NNE
Spot 2 Rocket 3.5 20:26:24 10° SSE 20:31:31 85° ENE 20:36:38 10° NNW
Resurs 01 Rocket 1.8 20:28:21 10° S 20:32:48 80° WSW 20:37:17 10° NNW
Abrixas rocket 4.1 20:30:43 10° WNW 20:33:32 26° N 20:36:23 10° ENE
SL-16 R/B 2.2 20:28:59 10° SSW 20:34:37 74° ESE 20:40:18 10° NNE
Cosmos 2151 Rocket 3.6 20:35:21 10° S 20:39:44 84° W 20:44:09 10° N
EXPRESS MD2 3.4 20:38:23 10° WSW 20:40:52 57° NNW 20:45:06 10° ENE
Helios 1A 3.6 20:41:23 14° SE 20:44:44 39° ENE 20:48:42 10° N
Cosmos 2322 4.4 20:41:20 10° SSE 20:46:09 30° ESE 20:51:00 10° NE
ATLAS 3B R/B 3.2 20:42:42 10° NNW 20:49:08 43° NE 20:53:56 17° ESE
ERS-1 Rocket 4.0 20:46:40 16° ESE 20:49:48 30° ENE 20:54:07 10° N
Meteor 1-29 4.1 20:50:35 10° NE 20:53:24 24° E 20:54:00 22° ESE
Cosmos 1536 Rocket 3.8 20:49:34 10° NNW 20:53:54 71° W 20:58:12 10° S
Cosmos 2360 Rocket 2.5 20:49:52 10° S 20:55:09 43° ESE 21:00:28 10° NE
Cosmos 1980 Rocket 4.4 20:51:49 10° WSW 20:56:36 28° NW 21:01:23 10° N
COSMOS 2428 3.9 20:55:48 18° ESE 20:57:14 20° E 21:01:17 10° NE
Cosmos 1939 Rocket 2.8 20:53:54 10° SSE 20:57:53 87° ENE 21:01:50 10° NNW
Cosmos 1536 2.8 20:54:47 10° S 20:58:52 87° E 21:02:57 10° N
Lacrosse 5 rocket 3.7 20:56:56 10° W 20:59:08 15° WSW 21:01:22 10° SSW
USA 267 4.4 20:53:14 10° SSE 20:59:11 37° SW 21:05:11 10° WNW
Cosmos 1741 Rocket 4.1 20:54:03 10° NNW 20:59:18 77° WSW 21:04:32 10° SSE
Envisat 3.3 20:55:46 10° S 21:00:48 67° WSW 21:05:53 10° NNW
NOSS 2-3 (D) 3.9 20:57:11 10° SW 21:01:51 83° NW 21:07:20 10° NE
Meteor 1-5 Rocket 4.0 21:03:28 10° S 21:08:47 76° E 21:14:05 10° NNE
H-2A R/B 3.4 21:08:23 19° E 21:10:01 22° ENE 21:13:47 10° NNE
SAR-Lupe-4 4.1 21:12:33 33° ESE 21:13:29 40° ENE 21:16:52 10° N
NOAA 11 4.3 21:12:03 22° SE 21:15:33 58° ENE 21:20:57 10° N
CZ-4B DEB 2.5 21:15:45 51° ESE 21:16:02 54° ENE 21:18:52 10° N
Meteor 2-4 Rocket 4.2 21:13:08 10° NNW 21:18:38 60° W 21:24:14 10° S
MetOp-A 4.2 21:24:43 29° SE 21:27:19 59° ENE 21:32:35 10° N
Cosmos 405 4.1 21:28:30 30° ENE 21:28:30 30° ENE 21:30:59 10° NNE
ATLAS 2AS CENTAUR R/B 3.1 21:20:33 10° SW 21:28:17 83° NW 21:36:29 10° NE
Delta 2 Rocket 4.3 21:25:04 10° SW 21:28:49 32° S 21:28:55 32° SSE
Helios 1B rocket 2.4 21:26:05 10° NNE 21:30:12 85° WNW 21:33:57 12° SSW
Cosmos 1110 Rocket 3.9 21:25:03 10° SSW 21:30:13 87° ESE 21:35:25 10° NNE
SAR-Lupe-1 4.2 21:29:54 50° ESE 21:30:18 54° ENE 21:33:50 10° N
BREEZE M DEB (TANK) 2.7 21:25:04 10° SW 21:32:56 52° SSE 21:33:38 44° ESE
SPOT 5 3.4 21:33:36 36° ESE 21:34:41 41° ENE 21:39:03 10° N
Cosmos 1455 Rocket 4.0 21:37:04 31° ENE 21:37:04 31° ENE 21:40:33 10° NNE
Lacrosse 5 2.3 21:34:08 10° WSW 21:39:10 63° NW 21:44:14 10° NE
Cosmos 1066 Rocket 4.4 21:34:27 10° N 21:39:44 50° ENE 21:41:16 39° ESE
Cosmos 1331 Rocket 4.0 21:38:04 10° SSW 21:43:15 82° WNW 21:48:31 10° NNE
SeaSat 1 3.7 21:41:43 10° NNE 21:46:21 42° NW 21:50:58 10° SW
SL-8 R/B 3.7 21:42:12 10° WNW 21:47:00 75° NNE 21:48:14 49° E
Atlas Centaur 2 4.0 21:43:31 10° WSW 21:49:38 24° SSW 21:51:30 22° S
SL-08 RB Rocket 3.7 21:49:38 54° ESE 21:50:14 59° ENE 21:54:43 10° N
ARGOS 3.0 21:49:54 43° SSE 21:51:42 79° ENE 21:57:05 10° N
Nadezhda 1 Rocket 4.5 21:45:51 10° N 21:51:50 42° ENE 21:53:09 38° ESE
Cosmos 1244 Rocket 4.4 21:49:27 20° S 21:53:54 89° E 22:00:05 10° N
Cosmos 1743 4.4 21:56:17 22° NE 21:56:17 22° NE 21:57:56 10° NNE
Cosmos 1025 Rocket 4.0 21:54:15 10° NNW 21:58:16 42° W 22:00:09 26° SW
Tiangong 1 3.7 21:57:21 10° WSW 21:57:45 12° WSW 21:57:45 12° WSW
Okean 2 4.3 21:55:42 10° NNW 21:59:37 45° W 22:00:54 33° SW
Landsat 7 4.5 22:01:05 39° ENE 22:01:05 39° ENE 22:05:28 10° N
Cosmos 2263 Rocket 3.8 21:56:59 10° NW 22:01:46 28° WSW 22:05:41 14° SSW
Cosmos 2278 Rocket 3.3 22:00:56 10° N 22:05:52 29° NE 22:06:39 28° ENE
Cosmos 1844 Rocket 2.6 22:03:31 10° NNW 22:09:13 74° ENE 22:10:09 60° ESE
Abrixas rocket 3.8 22:07:35 10° NW 22:09:53 35° NNW 22:09:53 35° NNW
SPOT 1/Viking Rocket 3.4 22:10:41 65° ESE 22:11:18 73° ENE 22:16:32 10° N
SL-08 R/B 4.4 22:09:03 42° S 22:11:19 80° E 22:17:40 10° N
Cosmos 1818 3.4 22:10:06 51° S 22:11:26 74° ESE 22:16:53 10° NE
Cosmos 2237 4.4 22:07:11 10° SSW 22:12:50 71° WNW 22:18:33 10° NNE
Cosmos 1975 3.2 22:16:24 62° WNW 22:16:24 62° WNW 22:20:12 10° N
Terra 2.6 22:16:55 38° NE 22:16:55 38° NE 22:20:48 10° N
YAOGAN 11 4.0 22:16:51 81° NW 22:16:51 81° NW 22:21:01 10° NNW
Nimbus 7 Rocket 4.3 22:13:17 10° NNE 22:19:09 67° ESE 22:19:44 63° SE
H-2A R/B 3.9 22:23:50 21° NE 22:23:50 21° NE 22:26:09 10° NNE
BREEZE-M DEB 3.4 22:16:06 10° WNW 22:22:33 56° N 22:22:33 56° N
NOSS 3-2 (A) 4.0 22:15:47 10° NNW 22:23:19 77° NE 22:25:38 51° SE
Cosmos 1503 Rocket 4.0 22:18:06 10° NNW 22:23:28 66° ENE 22:23:33 66° ENE
Cosmos 2219 Rocket 2.3 22:24:26 58° ENE 22:24:26 58° ENE 22:29:22 10° NNE
USA 238 DEB 4.0 22:18:25 10° NW 22:25:24 62° WSW 22:27:24 45° S
USA 238 4.0 22:18:30 10° NW 22:25:30 62° WSW 22:27:30 46° S
Cosmos 724 4.2 22:20:26 10° NNW 22:26:20 71° ENE 22:26:49 67° E
Meteor 1-12 Rocket 4.4 22:26:33 43° SSW 22:28:24 70° W 22:34:03 10° N
ERS-1 Rocket 4.3 22:26:41 26° SW 22:28:28 33° W 22:33:02 10° NNW
USA 245 4.4 22:28:30 48° WSW 22:29:01 50° WSW 22:33:12 10° NNW
Cosmos 2360 Rocket 4.0 22:34:26 10° WSW 22:39:18 29° NW 22:44:11 10° N
ATLAS 3B R/B 3.3 22:33:36 10° NW 22:39:46 41° WSW 22:41:11 36° SW
COSMOS 2428 3.2 22:37:40 25° SW 22:40:59 60° WNW 22:46:40 10° NNE
Cosmos 1745 Rocket 4.1 22:45:48 52° SW 22:47:12 67° W 22:53:20 10° N
Cosmos 1844 3.7 22:42:08 10° NNW 22:47:46 72° WSW 22:47:46 72° WSW
H-2A R/B 2.7 22:49:01 45° WSW 22:49:09 46° W 22:53:56 10° NNW
NOSS 0 Rocket 4.1 22:51:56 58° ENE 22:51:56 58° ENE 22:57:05 10° NNE
Cosmos 2333 Rocket 2.4 22:55:02 64° NNE 22:55:02 64° NNE 22:59:46 10° NNE
ATLAS CENTAUR R/B 4.0 22:52:41 10° NNE 22:53:18 12° NNE 22:53:18 12° NNE
NOSS 3-2 (C) 3.9 22:54:53 10° NW 23:02:28 84° WSW 23:03:28 71° SSE
FALCON 9 R/B 4.5 23:06:24 48° SE 23:06:35 48° SE 23:37:44 10° E
COSMOS 2455 3.9 23:04:39 10° NNW 23:10:05 34° NE 23:10:05 34° NE
Cosmos 2237 Rocket 3.0 23:12:24 44° NNE 23:12:24 44° NNE 23:16:10 10° NNE
Cosmos 968 Rocket 4.4 23:08:57 10° NNW 23:12:34 44° N 23:12:34 44° N
Cosmos 1980 4.3 23:18:31 52° NNE 23:18:31 52° NNE 23:22:48 10° NNE
Lacrosse 5 4.3 23:19:15 10° WNW 23:23:01 20° NNW 23:26:47 10° NNE
CENTAUR R/B 3.2 23:21:52 10° NNW 23:29:41 66° NE 23:30:30 63° E
NOSS 3-4 (A) 3.9 23:28:46 52° W 23:29:46 58° NW 23:36:13 10° NNE
NOSS 3-4 (C) 3.9 23:28:58 54° W 23:29:53 59° NW 23:36:19 10° NNE
ATLAS CENTAUR R/B 4.1 23:19:24 10° NW 23:31:27 40° NNE 23:33:12 33° NE
Cosmos 2297 4.5 23:31:47 10° NNW 23:35:58 47° N 23:35:58 47° N
Cosmos 2278 Rocket 3.4 23:44:44 10° NW 23:48:29 35° WNW 23:48:29 35° WNW
Terra 4.0 23:55:49 19° WNW 23:55:49 19° WNW 23:57:57 10° NW
